Location: Newark
(58.9986°N, 38.5006°E)
Time: 13:28:14
(UTC+00:00)

N. Korean satellite - Pass Details

Date: 17 December 2019
Orbit: 454 x 507 km, 97.2° (Epoch: 23 January)

Event Time Altitude Azimuth Distance (km) Brightness Sun altitude
Rises 14:14:36 0° 169° (SSE) 2,591 10.5 -11.7°
Reaches altitude 10° 14:16:41 10° 171° (S) 1,705 9.5 -11.9°
Maximum altitude 14:20:21 72° 256° (WSW) 527 6.9 -12.4°
Drops below altitude 10° 14:24:00 10° 342° (NNW) 1,691 9.2 -12.8°
Sets 14:26:04 0° 344° (NNW) 2,568 10.2 -13.0°
